date,City,No. Stations,Air Quality,Index Value,Prominent Pollutant
2018-06-29,Muzaffarnagar,1.0,Satisfactory,81,PM2.5
2018-06-30,Muzaffarnagar,1.0,Moderate,163,PM2.5
2018-07-01,Muzaffarnagar,1.0,Poor,261,PM2.5
2018-07-02,Muzaffarnagar,1.0,Poor,212,PM2.5
2018-07-03,Muzaffarnagar,1.0,Moderate,118,PM2.5
2018-07-04,Muzaffarnagar,1.0,Moderate,134,PM2.5
2018-07-05,Muzaffarnagar,1.0,Moderate,195,PM2.5
2018-07-06,Muzaffarnagar,1.0,Poor,220,PM2.5
2018-07-07,Muzaffarnagar,1.0,Moderate,129,PM10
2018-07-08,Muzaffarnagar,1.0,Poor,286,PM2.5
2018-07-09,Muzaffarnagar,1.0,Poor,219,PM2.5
2018-07-10,Muzaffarnagar,1.0,Satisfactory,75,PM10
2018-07-11,Muzaffarnagar,1.0,Satisfactory,74,PM10
2018-07-12,Muzaffarnagar,1.0,Satisfactory,79,PM10
2018-07-13,Muzaffarnagar,1.0,Satisfactory,68,PM10
2018-07-14,Muzaffarnagar,1.0,Good,48,NO2
2018-07-15,Muzaffarnagar,1.0,Satisfactory,63,PM10
2018-07-16,Muzaffarnagar,1.0,Satisfactory,95,PM2.5
2018-07-20,Muzaffarnagar,1.0,Moderate,171,PM2.5
2018-07-21,Muzaffarnagar,1.0,Satisfactory,81,PM10
2018-07-22,Muzaffarnagar,1.0,Satisfactory,61,PM10
2018-07-23,Muzaffarnagar,1.0,Satisfactory,60,PM10
2018-07-24,Muzaffarnagar,1.0,Satisfactory,73,CO
2018-07-25,Muzaffarnagar,1.0,Satisfactory,62,PM10
2018-07-26,Muzaffarnagar,1.0,Satisfactory,63,PM10
2018-07-27,Muzaffarnagar,1.0,Satisfactory,59,CO
2018-07-28,Muzaffarnagar,1.0,Satisfactory,50,CO
2018-07-29,Muzaffarnagar,1.0,Satisfactory,65,CO
2018-07-30,Muzaffarnagar,1.0,Moderate,125,PM10
2018-07-31,Muzaffarnagar,1.0,Moderate,140,PM10
2018-08-01,Muzaffarnagar,1.0,Moderate,103,PM10
2018-08-03,Muzaffarnagar,1.0,Moderate,158,PM10
2018-08-04,Muzaffarnagar,1.0,Moderate,165,PM10
2018-08-05,Muzaffarnagar,1.0,Poor,230,PM10
2018-08-06,Muzaffarnagar,1.0,Satisfactory,80,PM10
2018-08-07,Muzaffarnagar,1.0,Satisfactory,74,CO
2018-08-08,Muzaffarnagar,1.0,Satisfactory,57,CO
2018-08-09,Muzaffarnagar,1.0,Satisfactory,58,CO
2018-08-10,Muzaffarnagar,1.0,Satisfactory,89,PM10
2018-08-17,Muzaffarnagar,1.0,Satisfactory,74,CO
2018-08-18,Muzaffarnagar,1.0,Satisfactory,71,CO
2018-08-19,Muzaffarnagar,1.0,Satisfactory,72,CO
2018-08-20,Muzaffarnagar,1.0,Moderate,117,PM2.5
2018-08-21,Muzaffarnagar,1.0,Satisfactory,61,PM10
2018-08-22,Muzaffarnagar,1.0,Good,49,PM10
2018-08-23,Muzaffarnagar,1.0,Satisfactory,67,CO
2018-08-24,Muzaffarnagar,1.0,Moderate,106,PM2.5
2018-08-25,Muzaffarnagar,1.0,Moderate,100,CO
2018-08-26,Muzaffarnagar,1.0,Moderate,106,CO
2018-08-27,Muzaffarnagar,1.0,Moderate,100,CO
2018-08-28,Muzaffarnagar,1.0,Satisfactory,79,CO
2018-08-29,Muzaffarnagar,1.0,Moderate,110,CO
2018-08-30,Muzaffarnagar,1.0,Satisfactory,94,CO
2018-08-31,Muzaffarnagar,1.0,Moderate,100,CO
2018-09-01,Muzaffarnagar,1.0,Moderate,129,CO
2018-09-02,Muzaffarnagar,1.0,Moderate,115,CO
2018-09-03,Muzaffarnagar,1.0,Moderate,165,CO
2018-09-04,Muzaffarnagar,1.0,Satisfactory,62,PM2.5
2018-09-05,Muzaffarnagar,1.0,Satisfactory,91,PM2.5
2018-09-06,Muzaffarnagar,1.0,Moderate,100,PM10
2018-09-07,Muzaffarnagar,1.0,Satisfactory,65,PM10
2018-09-08,Muzaffarnagar,1.0,Satisfactory,76,PM2.5
2018-09-09,Muzaffarnagar,1.0,Satisfactory,63,PM10
2018-09-10,Muzaffarnagar,1.0,Moderate,109,PM2.5
2018-09-11,Muzaffarnagar,1.0,Satisfactory,95,PM2.5
2018-09-12,Muzaffarnagar,1.0,Satisfactory,79,PM10
2018-09-13,Muzaffarnagar,1.0,Satisfactory,96,PM10
2018-09-14,Muzaffarnagar,1.0,Satisfactory,99,PM10
2018-09-15,Muzaffarnagar,1.0,Moderate,104,PM2.5
2018-09-18,Muzaffarnagar,1.0,Moderate,122,PM10
2018-09-25,Muzaffarnagar,1.0,Good,41,PM2.5
2018-09-27,Muzaffarnagar,1.0,Moderate,133,PM2.5
2018-09-28,Muzaffarnagar,1.0,Moderate,199,PM2.5
2018-09-29,Muzaffarnagar,1.0,Poor,230,PM2.5
2018-09-30,Muzaffarnagar,1.0,Moderate,128,PM2.5
2018-10-01,Muzaffarnagar,1.0,Moderate,114,PM10
2018-10-02,Muzaffarnagar,1.0,Moderate,177,PM2.5
2018-10-03,Muzaffarnagar,1.0,Poor,221,PM2.5
2018-10-04,Muzaffarnagar,1.0,Poor,213,PM2.5
2018-10-05,Muzaffarnagar,1.0,Moderate,195,PM2.5
2018-10-06,Muzaffarnagar,1.0,Poor,205,PM2.5
2018-10-07,Muzaffarnagar,1.0,Poor,271,PM2.5
2018-10-08,Muzaffarnagar,1.0,Poor,259,PM2.5
2018-10-09,Muzaffarnagar,1.0,Poor,223,PM2.5
2018-10-10,Muzaffarnagar,1.0,Poor,212,PM2.5
2018-10-11,Muzaffarnagar,1.0,Poor,210,PM2.5
2018-10-12,Muzaffarnagar,1.0,Moderate,102,CO
2018-10-13,Muzaffarnagar,1.0,Poor,222,PM2.5
2018-10-14,Muzaffarnagar,1.0,Poor,267,PM2.5
2018-10-15,Muzaffarnagar,1.0,Very Poor,345,PM2.5
2018-10-16,Muzaffarnagar,1.0,Moderate,200,PM10
2018-10-17,Muzaffarnagar,1.0,Poor,284,PM2.5
2018-10-18,Muzaffarnagar,1.0,Poor,300,PM2.5
2018-10-19,Muzaffarnagar,1.0,Moderate,189,PM2.5
2018-10-20,Muzaffarnagar,1.0,Very Poor,307,PM2.5
2018-10-21,Muzaffarnagar,1.0,Poor,260,PM2.5
2018-10-22,Muzaffarnagar,1.0,Poor,284,PM2.5
2018-10-23,Muzaffarnagar,1.0,Poor,294,PM2.5
2018-10-24,Muzaffarnagar,1.0,Poor,244,PM2.5
2018-10-25,Muzaffarnagar,1.0,Poor,251,PM2.5
2018-10-26,Muzaffarnagar,1.0,Poor,222,PM2.5
2018-10-27,Muzaffarnagar,1.0,Very Poor,363,PM2.5
2018-10-28,Muzaffarnagar,1.0,Very Poor,337,PM2.5
2018-10-29,Muzaffarnagar,1.0,Very Poor,345,PM2.5
2018-10-30,Muzaffarnagar,1.0,Very Poor,351,PM2.5
2018-10-31,Muzaffarnagar,1.0,Very Poor,313,PM2.5
2018-11-01,Muzaffarnagar,1.0,Very Poor,342,PM2.5
2018-11-02,Muzaffarnagar,1.0,Poor,295,PM2.5
2018-11-03,Muzaffarnagar,1.0,Poor,258,PM2.5
2018-11-04,Muzaffarnagar,1.0,Satisfactory,98,PM10
2018-11-05,Muzaffarnagar,1.0,Severe,415,PM2.5
2018-11-06,Muzaffarnagar,1.0,Very Poor,327,PM2.5
2018-11-07,Muzaffarnagar,1.0,Very Poor,382,PM2.5
2018-11-08,Muzaffarnagar,1.0,Very Poor,362,PM2.5
2018-11-09,Muzaffarnagar,1.0,Very Poor,336,PM2.5
2018-11-10,Muzaffarnagar,1.0,Very Poor,351,PM2.5
2018-11-11,Muzaffarnagar,1.0,Severe,411,PM2.5
2018-11-12,Muzaffarnagar,1.0,Severe,405,PM2.5
2018-11-13,Muzaffarnagar,1.0,Severe,410,PM2.5
2018-11-14,Muzaffarnagar,1.0,Very Poor,341,PM2.5
2018-11-15,Muzaffarnagar,1.0,Poor,208,PM2.5
2018-11-16,Muzaffarnagar,1.0,Poor,204,PM2.5
2018-11-17,Muzaffarnagar,1.0,Poor,261,PM2.5
2018-11-18,Muzaffarnagar,1.0,Very Poor,344,PM2.5
2018-11-19,Muzaffarnagar,1.0,Very Poor,312,PM2.5
2018-11-20,Muzaffarnagar,1.0,Very Poor,358,PM2.5
2018-11-21,Muzaffarnagar,1.0,Very Poor,335,PM2.5
2018-11-22,Muzaffarnagar,1.0,Very Poor,357,PM2.5
2018-11-23,Muzaffarnagar,1.0,Very Poor,321,PM2.5
2018-11-24,Muzaffarnagar,1.0,Moderate,180,PM2.5
2018-11-25,Muzaffarnagar,1.0,Very Poor,350,PM2.5
2018-11-26,Muzaffarnagar,1.0,Very Poor,322,PM2.5
2018-11-27,Muzaffarnagar,1.0,Very Poor,359,PM2.5
2018-11-28,Muzaffarnagar,1.0,Very Poor,379,PM2.5
2018-11-29,Muzaffarnagar,1.0,Very Poor,377,PM2.5
2018-11-30,Muzaffarnagar,1.0,Very Poor,353,PM2.5
2018-12-01,Muzaffarnagar,1.0,Very Poor,304,PM2.5
2018-12-02,Muzaffarnagar,1.0,Very Poor,388,PM2.5
2018-12-03,Muzaffarnagar,1.0,Very Poor,391,PM2.5
2018-12-04,Muzaffarnagar,1.0,Very Poor,360,PM2.5
2018-12-05,Muzaffarnagar,1.0,Very Poor,376,PM2.5
2018-12-06,Muzaffarnagar,1.0,Very Poor,392,PM2.5
2018-12-07,Muzaffarnagar,1.0,Very Poor,352,PM2.5
2018-12-08,Muzaffarnagar,1.0,Very Poor,330,PM2.5
2018-12-09,Muzaffarnagar,1.0,Very Poor,368,PM2.5
2018-12-10,Muzaffarnagar,1.0,Very Poor,358,PM2.5
2018-12-11,Muzaffarnagar,1.0,Very Poor,365,PM2.5
2018-12-12,Muzaffarnagar,1.0,Very Poor,341,PM2.5
2018-12-13,Muzaffarnagar,1.0,Moderate,191,PM2.5
2018-12-14,Muzaffarnagar,1.0,Poor,252,PM2.5
2018-12-15,Muzaffarnagar,1.0,Poor,262,PM2.5
2018-12-16,Muzaffarnagar,1.0,Very Poor,339,PM2.5
2018-12-17,Muzaffarnagar,1.0,Very Poor,338,PM2.5
2018-12-18,Muzaffarnagar,1.0,Very Poor,331,PM2.5
2018-12-19,Muzaffarnagar,1.0,Very Poor,373,PM2.5
2018-12-20,Muzaffarnagar,1.0,Very Poor,388,PM2.5
2018-12-21,Muzaffarnagar,1.0,Very Poor,361,PM2.5
2018-12-22,Muzaffarnagar,1.0,Severe,402,PM2.5
2018-12-23,Muzaffarnagar,1.0,Severe,422,PM2.5
2018-12-24,Muzaffarnagar,1.0,Very Poor,384,PM2.5
2018-12-25,Muzaffarnagar,1.0,Very Poor,356,PM2.5
2018-12-26,Muzaffarnagar,1.0,Very Poor,377,PM2.5
2018-12-27,Muzaffarnagar,1.0,Severe,426,PM2.5
2018-12-28,Muzaffarnagar,1.0,Very Poor,353,PM2.5
2018-12-29,Muzaffarnagar,1.0,Very Poor,368,PM2.5
2018-12-30,Muzaffarnagar,1.0,Severe,414,PM2.5
2018-12-31,Muzaffarnagar,1.0,Severe,421,PM2.5
2019-01-01,Muzaffarnagar,1.0,Severe,401,PM2.5
2019-01-02,Muzaffarnagar,1.0,Severe,446,PM2.5
2019-01-03,Muzaffarnagar,1.0,Severe,434,PM2.5
2019-01-04,Muzaffarnagar,1.0,Very Poor,361,PM2.5
2019-01-05,Muzaffarnagar,1.0,Very Poor,361,PM2.5
2019-01-06,Muzaffarnagar,1.0,Very Poor,345,PM2.5
2019-01-07,Muzaffarnagar,1.0,Very Poor,342,PM2.5
2019-01-08,Muzaffarnagar,1.0,Poor,291,PM2.5
2019-01-09,Muzaffarnagar,1.0,Poor,283,PM2.5
2019-01-10,Muzaffarnagar,1.0,Very Poor,314,PM2.5
2019-01-11,Muzaffarnagar,1.0,Very Poor,378,PM2.5
2019-01-12,Muzaffarnagar,1.0,Very Poor,378,PM2.5
2019-01-13,Muzaffarnagar,1.0,Severe,403,PM2.5
2019-01-14,Muzaffarnagar,1.0,Poor,226,PM2.5
2019-01-15,Muzaffarnagar,1.0,Poor,218,PM2.5
2019-01-16,Muzaffarnagar,1.0,Very Poor,338,PM2.5
2019-01-17,Muzaffarnagar,1.0,Severe,416,PM2.5
2019-01-18,Muzaffarnagar,1.0,Very Poor,358,PM2.5
2019-01-19,Muzaffarnagar,1.0,Very Poor,331,PM2.5
2019-01-20,Muzaffarnagar,1.0,Very Poor,363,PM2.5
2019-01-21,Muzaffarnagar,1.0,Very Poor,379,PM2.5
2019-01-22,Muzaffarnagar,1.0,Moderate,111,PM10
2019-01-23,Muzaffarnagar,1.0,Moderate,121,PM2.5
2019-01-24,Muzaffarnagar,1.0,Moderate,160,PM2.5
2019-01-25,Muzaffarnagar,1.0,Moderate,121,PM2.5
2019-01-26,Muzaffarnagar,1.0,Poor,223,PM2.5
2019-01-27,Muzaffarnagar,1.0,Poor,224,PM2.5
2019-01-28,Muzaffarnagar,1.0,Moderate,199,PM2.5
2019-01-29,Muzaffarnagar,1.0,Poor,244,PM2.5
2019-01-30,Muzaffarnagar,1.0,Poor,268,PM2.5
2019-01-31,Muzaffarnagar,1.0,Very Poor,373,PM2.5
2019-02-01,Muzaffarnagar,1.0,Poor,259,PM2.5
2019-02-02,Muzaffarnagar,1.0,Very Poor,311,PM2.5
2019-02-03,Muzaffarnagar,1.0,Poor,278,PM2.5
2019-02-04,Muzaffarnagar,1.0,Very Poor,328,PM2.5
2019-02-05,Muzaffarnagar,1.0,Very Poor,326,PM2.5
2019-02-06,Muzaffarnagar,1.0,Very Poor,368,PM2.5
2019-02-07,Muzaffarnagar,1.0,Poor,204,PM2.5
2019-02-08,Muzaffarnagar,1.0,Satisfactory,99,PM2.5
2019-02-09,Muzaffarnagar,1.0,Moderate,122,PM2.5
2019-02-10,Muzaffarnagar,1.0,Moderate,200,PM2.5
2019-02-11,Muzaffarnagar,1.0,Poor,214,PM2.5
2019-02-12,Muzaffarnagar,1.0,Poor,274,PM2.5
2019-02-13,Muzaffarnagar,1.0,Very Poor,344,PM2.5
2019-02-14,Muzaffarnagar,1.0,Very Poor,368,PM2.5
2019-02-15,Muzaffarnagar,1.0,Moderate,177,PM2.5
2019-02-16,Muzaffarnagar,1.0,Satisfactory,70,PM2.5
2019-02-17,Muzaffarnagar,1.0,Moderate,163,PM2.5
2019-02-18,Muzaffarnagar,1.0,Poor,204,PM2.5
2019-02-19,Muzaffarnagar,1.0,Moderate,118,PM2.5
2019-02-20,Muzaffarnagar,1.0,Moderate,156,PM10
2019-02-21,Muzaffarnagar,1.0,Moderate,132,PM2.5
2019-02-22,Muzaffarnagar,1.0,Moderate,170,PM2.5
2019-02-23,Muzaffarnagar,1.0,Satisfactory,90,PM10
2019-02-24,Muzaffarnagar,1.0,Moderate,112,PM2.5
2019-02-25,Muzaffarnagar,1.0,Poor,236,PM2.5
2019-02-26,Muzaffarnagar,1.0,Moderate,133,PM2.5
2019-02-27,Muzaffarnagar,1.0,Satisfactory,67,PM10
2019-02-28,Muzaffarnagar,1.0,Moderate,146,PM2.5
2019-03-01,Muzaffarnagar,1.0,Moderate,195,PM2.5
2019-03-02,Muzaffarnagar,1.0,Poor,217,PM2.5
2019-03-03,Muzaffarnagar,1.0,Moderate,173,PM2.5
2019-03-04,Muzaffarnagar,1.0,Moderate,163,PM2.5
2019-03-05,Muzaffarnagar,1.0,Moderate,118,PM2.5
2019-03-06,Muzaffarnagar,1.0,Moderate,128,PM2.5
2019-03-07,Muzaffarnagar,1.0,Moderate,173,PM2.5
2019-03-08,Muzaffarnagar,1.0,Moderate,154,PM2.5
2019-03-09,Muzaffarnagar,1.0,Moderate,175,PM2.5
2019-03-10,Muzaffarnagar,1.0,Moderate,147,PM2.5
2019-03-11,Muzaffarnagar,1.0,Moderate,185,PM2.5
2019-03-16,Muzaffarnagar,1.0,Moderate,141,PM2.5
2019-03-17,Muzaffarnagar,1.0,Moderate,162,PM2.5
2019-03-18,Muzaffarnagar,1.0,Moderate,186,PM2.5
2019-03-19,Muzaffarnagar,1.0,Poor,206,PM2.5
2019-03-20,Muzaffarnagar,1.0,Poor,235,PM2.5
2019-03-21,Muzaffarnagar,1.0,Moderate,144,PM2.5
2019-03-22,Muzaffarnagar,1.0,Moderate,114,PM10
2019-03-23,Muzaffarnagar,1.0,Moderate,113,PM10
2019-03-24,Muzaffarnagar,1.0,Moderate,116,PM10
2019-03-25,Muzaffarnagar,1.0,Moderate,170,PM2.5
2019-03-26,Muzaffarnagar,1.0,Poor,207,PM2.5
2019-03-27,Muzaffarnagar,1.0,Moderate,189,PM2.5
2019-03-28,Muzaffarnagar,1.0,Poor,211,PM2.5
2019-03-29,Muzaffarnagar,1.0,Poor,229,PM2.5
2019-03-30,Muzaffarnagar,1.0,Poor,278,PM2.5
2019-03-31,Muzaffarnagar,1.0,Poor,205,PM2.5
2019-04-01,Muzaffarnagar,1.0,Moderate,140,PM10
2019-04-02,Muzaffarnagar,1.0,Poor,256,PM2.5
2019-04-03,Muzaffarnagar,1.0,Poor,211,PM2.5
2019-04-04,Muzaffarnagar,1.0,Poor,291,PM2.5
2019-04-05,Muzaffarnagar,1.0,Very Poor,309,PM2.5
2019-04-06,Muzaffarnagar,1.0,Very Poor,324,PM2.5
2019-04-07,Muzaffarnagar,1.0,Poor,246,PM2.5
2019-04-08,Muzaffarnagar,1.0,Poor,298,PM10
2019-04-09,Muzaffarnagar,1.0,Poor,206,PM2.5
2019-04-10,Muzaffarnagar,1.0,Poor,297,PM2.5
2019-04-11,Muzaffarnagar,1.0,Poor,222,PM2.5
2019-04-12,Muzaffarnagar,1.0,Moderate,185,PM10
2019-04-13,Muzaffarnagar,1.0,Moderate,161,PM10
2019-04-14,Muzaffarnagar,1.0,Moderate,147,PM10
2019-04-15,Muzaffarnagar,1.0,Moderate,141,PM10
2019-04-16,Muzaffarnagar,1.0,Moderate,200,PM10
2019-04-17,Muzaffarnagar,1.0,Moderate,104,PM10
2019-04-18,Muzaffarnagar,1.0,Satisfactory,69,PM2.5
2019-04-19,Muzaffarnagar,1.0,Moderate,136,PM2.5
2019-04-20,Muzaffarnagar,1.0,Poor,212,PM2.5
2019-04-21,Muzaffarnagar,1.0,Poor,233,PM2.5
2019-04-22,Muzaffarnagar,1.0,Moderate,192,PM2.5
2019-04-23,Muzaffarnagar,1.0,Poor,253,PM2.5
2019-04-24,Muzaffarnagar,1.0,Poor,238,PM2.5
2019-04-25,Muzaffarnagar,1.0,Poor,238,PM2.5
2019-04-26,Muzaffarnagar,1.0,Moderate,184,PM2.5
2019-04-27,Muzaffarnagar,1.0,Moderate,185,PM10
2019-04-28,Muzaffarnagar,1.0,Moderate,197,PM10
2019-04-29,Muzaffarnagar,1.0,Moderate,188,PM10
2019-04-30,Muzaffarnagar,1.0,Poor,265,OZONE
2019-05-01,Muzaffarnagar,1.0,Poor,234,PM10
2019-05-02,Muzaffarnagar,1.0,Moderate,191,PM10
2019-05-05,Muzaffarnagar,1.0,Moderate,163,PM10
2019-05-06,Muzaffarnagar,1.0,Poor,216,PM10
2019-05-07,Muzaffarnagar,1.0,Poor,235,OZONE
2019-05-08,Muzaffarnagar,1.0,Poor,223,PM2.5
2019-05-09,Muzaffarnagar,1.0,Poor,250,PM2.5
2019-05-10,Muzaffarnagar,1.0,Very Poor,317,PM10
2019-05-11,Muzaffarnagar,1.0,Moderate,181,OZONE
2019-05-12,Muzaffarnagar,1.0,Poor,256,PM2.5
2019-05-13,Muzaffarnagar,1.0,Moderate,177,OZONE
2019-05-14,Muzaffarnagar,1.0,Moderate,176,PM10
2019-05-15,Muzaffarnagar,1.0,Moderate,199,PM10
2019-05-16,Muzaffarnagar,1.0,Poor,208,PM10
2019-05-17,Muzaffarnagar,1.0,Very Poor,307,PM10
2019-05-18,Muzaffarnagar,1.0,Moderate,124,PM10
2019-05-19,Muzaffarnagar,1.0,Poor,215,PM2.5
2019-05-20,Muzaffarnagar,1.0,Poor,245,PM2.5
2019-05-21,Muzaffarnagar,1.0,Poor,213,PM2.5
2019-05-22,Muzaffarnagar,1.0,Poor,214,OZONE
2019-05-23,Muzaffarnagar,1.0,Poor,249,OZONE
2019-05-24,Muzaffarnagar,1.0,Moderate,180,CO
2019-05-25,Muzaffarnagar,1.0,Moderate,185,CO
2019-05-26,Muzaffarnagar,1.0,Moderate,185,OZONE
2019-05-27,Muzaffarnagar,1.0,Moderate,185,CO
2019-05-28,Muzaffarnagar,1.0,Moderate,180,OZONE
2019-05-29,Muzaffarnagar,1.0,Poor,209,OZONE
2019-05-30,Muzaffarnagar,1.0,Poor,274,OZONE
2019-05-31,Muzaffarnagar,1.0,Poor,246,OZONE
2019-06-01,Muzaffarnagar,1.0,Poor,235,PM10
2019-06-02,Muzaffarnagar,1.0,Moderate,169,PM10
2019-06-03,Muzaffarnagar,1.0,Moderate,167,PM10
2019-06-04,Muzaffarnagar,1.0,Moderate,143,PM10
2019-06-05,Muzaffarnagar,1.0,Moderate,183,PM2.5
2019-06-06,Muzaffarnagar,1.0,Moderate,179,PM10
2019-06-07,Muzaffarnagar,1.0,Moderate,152,OZONE
2019-06-08,Muzaffarnagar,1.0,Moderate,197,PM2.5
2019-06-09,Muzaffarnagar,1.0,Moderate,171,OZONE
2019-06-10,Muzaffarnagar,1.0,Moderate,193,OZONE
2019-06-11,Muzaffarnagar,1.0,Moderate,199,PM10
2019-06-12,Muzaffarnagar,1.0,Moderate,155,PM10
2019-06-13,Muzaffarnagar,1.0,Moderate,163,PM10
2019-06-14,Muzaffarnagar,1.0,Poor,213,PM10
2019-06-15,Muzaffarnagar,1.0,Moderate,186,OZONE
2019-06-16,Muzaffarnagar,1.0,Moderate,178,PM10
2019-06-17,Muzaffarnagar,1.0,Moderate,147,PM10
2019-06-18,Muzaffarnagar,1.0,Moderate,103,PM10
2019-06-19,Muzaffarnagar,1.0,Moderate,150,PM10
2019-06-20,Muzaffarnagar,1.0,Moderate,148,PM2.5
2019-06-21,Muzaffarnagar,1.0,Moderate,162,PM10
2019-06-22,Muzaffarnagar,1.0,Moderate,175,OZONE
2019-06-23,Muzaffarnagar,1.0,Satisfactory,72,PM2.5
2019-06-24,Muzaffarnagar,1.0,Satisfactory,63,PM10
2019-06-25,Muzaffarnagar,1.0,Satisfactory,80,PM10
2019-06-26,Muzaffarnagar,1.0,Satisfactory,98,PM2.5
2019-06-27,Muzaffarnagar,1.0,Moderate,135,PM10
2019-06-28,Muzaffarnagar,1.0,Moderate,144,PM10
2019-06-29,Muzaffarnagar,1.0,Moderate,190,PM10
2019-06-30,Muzaffarnagar,1.0,Poor,203,PM2.5
2019-07-01,Muzaffarnagar,1.0,Moderate,151,PM10
2019-07-21,Muzaffarnagar,1.0,Moderate,104,PM10
2019-07-22,Muzaffarnagar,1.0,Satisfactory,95,PM10
2019-07-23,Muzaffarnagar,1.0,Moderate,128,PM2.5
2019-07-24,Muzaffarnagar,1.0,Satisfactory,98,PM10
2019-07-25,Muzaffarnagar,1.0,Satisfactory,58,PM10
2019-07-26,Muzaffarnagar,1.0,Satisfactory,57,CO
2019-07-27,Muzaffarnagar,1.0,Good,50,CO
2019-07-28,Muzaffarnagar,1.0,Satisfactory,51,CO
2019-07-29,Muzaffarnagar,1.0,Moderate,190,CO
2019-08-01,Muzaffarnagar,1.0,Satisfactory,66,PM10
2019-08-02,Muzaffarnagar,1.0,Satisfactory,62,PM10
2019-08-03,Muzaffarnagar,1.0,Satisfactory,51,CO
2019-08-04,Muzaffarnagar,1.0,Satisfactory,52,CO
2019-08-05,Muzaffarnagar,1.0,Satisfactory,80,PM10
2019-08-06,Muzaffarnagar,1.0,Good,35,PM2.5
2019-08-07,Muzaffarnagar,1.0,Satisfactory,51,CO
2019-08-10,Muzaffarnagar,1.0,Satisfactory,60,PM10
2019-08-11,Muzaffarnagar,1.0,Satisfactory,64,CO
2019-08-12,Muzaffarnagar,1.0,Satisfactory,80,CO
2019-08-13,Muzaffarnagar,1.0,Moderate,107,PM2.5
2019-08-14,Muzaffarnagar,1.0,Satisfactory,51,CO
2019-08-24,Muzaffarnagar,1.0,Moderate,113,PM2.5
2019-08-25,Muzaffarnagar,1.0,Satisfactory,63,PM10
2019-08-26,Muzaffarnagar,1.0,Satisfactory,53,CO
2019-08-27,Muzaffarnagar,1.0,Satisfactory,67,PM10
2019-08-28,Muzaffarnagar,1.0,Satisfactory,80,PM10
2019-08-29,Muzaffarnagar,1.0,Satisfactory,92,PM10
2019-08-30,Muzaffarnagar,1.0,Satisfactory,73,PM10
2019-08-31,Muzaffarnagar,1.0,Satisfactory,84,PM10
2019-09-01,Muzaffarnagar,1.0,Moderate,102,PM2.5
2019-09-02,Muzaffarnagar,1.0,Satisfactory,63,PM10
2019-09-03,Muzaffarnagar,1.0,Satisfactory,89,PM10
2019-09-04,Muzaffarnagar,1.0,Satisfactory,91,PM2.5
2019-09-05,Muzaffarnagar,1.0,Satisfactory,66,PM10
2019-09-06,Muzaffarnagar,1.0,Satisfactory,64,CO
2019-09-07,Muzaffarnagar,1.0,Satisfactory,55,PM10
2019-09-08,Muzaffarnagar,1.0,Satisfactory,55,PM10
2019-09-09,Muzaffarnagar,1.0,Moderate,104,PM2.5
2019-09-10,Muzaffarnagar,1.0,Moderate,123,PM10
2019-09-11,Muzaffarnagar,1.0,Moderate,170,PM2.5
2019-09-12,Muzaffarnagar,1.0,Moderate,123,PM2.5
2019-09-13,Muzaffarnagar,1.0,Satisfactory,67,PM10
2019-09-14,Muzaffarnagar,1.0,Satisfactory,54,PM10
2019-09-15,Muzaffarnagar,1.0,Good,50,PM10
2019-09-16,Muzaffarnagar,1.0,Satisfactory,89,PM2.5
2019-09-17,Muzaffarnagar,1.0,Satisfactory,99,PM2.5
2019-09-18,Muzaffarnagar,1.0,Moderate,101,PM2.5
2019-09-19,Muzaffarnagar,1.0,Satisfactory,59,CO
2019-09-20,Muzaffarnagar,1.0,Satisfactory,65,PM10
2019-09-21,Muzaffarnagar,1.0,Moderate,109,PM10
2019-09-22,Muzaffarnagar,1.0,Satisfactory,66,PM10
2019-09-23,Muzaffarnagar,1.0,Satisfactory,52,PM10
2019-09-24,Muzaffarnagar,1.0,Satisfactory,71,PM10
2019-09-25,Muzaffarnagar,1.0,Satisfactory,69,PM10
2019-09-26,Muzaffarnagar,1.0,Satisfactory,54,PM10
2019-09-27,Muzaffarnagar,1.0,Good,49,PM10
2019-09-28,Muzaffarnagar,1.0,Good,50,PM10
2019-09-29,Muzaffarnagar,1.0,Good,46,PM10
2019-09-30,Muzaffarnagar,1.0,Good,47,PM10
2019-10-01,Muzaffarnagar,1.0,Satisfactory,59,PM10
2019-10-02,Muzaffarnagar,1.0,Satisfactory,94,PM2.5
2019-10-03,Muzaffarnagar,1.0,Moderate,129,PM2.5
2019-10-04,Muzaffarnagar,1.0,Moderate,105,PM10
2019-10-05,Muzaffarnagar,1.0,Satisfactory,90,PM2.5
2019-10-06,Muzaffarnagar,1.0,Moderate,117,PM2.5
2019-10-07,Muzaffarnagar,1.0,Moderate,169,PM2.5
2019-10-08,Muzaffarnagar,1.0,Moderate,107,PM2.5
2019-10-09,Muzaffarnagar,1.0,Poor,206,PM2.5
2019-10-10,Muzaffarnagar,1.0,Poor,203,PM2.5
2019-10-11,Muzaffarnagar,1.0,Poor,264,PM2.5
2019-10-12,Muzaffarnagar,1.0,Poor,269,PM2.5
2019-10-13,Muzaffarnagar,1.0,Poor,270,PM2.5
2019-10-14,Muzaffarnagar,1.0,Very Poor,310,PM2.5
2019-10-15,Muzaffarnagar,1.0,Poor,290,PM2.5
2019-10-16,Muzaffarnagar,1.0,Poor,271,PM2.5
2019-10-17,Muzaffarnagar,1.0,Poor,230,PM2.5
2019-10-18,Muzaffarnagar,1.0,Moderate,198,PM2.5
2019-10-19,Muzaffarnagar,1.0,Poor,239,PM2.5
2019-10-20,Muzaffarnagar,1.0,Very Poor,312,PM2.5
2019-10-21,Muzaffarnagar,1.0,Poor,266,PM2.5
2019-10-22,Muzaffarnagar,1.0,Poor,266,PM2.5
2019-10-23,Muzaffarnagar,1.0,Very Poor,343,PM2.5
2019-10-24,Muzaffarnagar,1.0,Poor,295,PM2.5
2019-10-25,Muzaffarnagar,1.0,Poor,275,PM2.5
2019-10-26,Muzaffarnagar,1.0,Poor,286,PM2.5
2019-10-27,Muzaffarnagar,1.0,Very Poor,357,PM2.5
2019-10-28,Muzaffarnagar,1.0,Severe,426,PM2.5
2019-10-29,Muzaffarnagar,1.0,Very Poor,330,PM2.5
2019-10-30,Muzaffarnagar,1.0,Severe,428,PM2.5
2020-01-21,Muzaffarnagar,1.0,Very Poor,355,PM2.5
2020-01-22,Muzaffarnagar,1.0,Very Poor,313,PM2.5
2020-01-23,Muzaffarnagar,1.0,Moderate,155,PM2.5
2020-01-24,Muzaffarnagar,1.0,Poor,201,NO2
2020-01-25,Muzaffarnagar,1.0,Poor,279,PM2.5
2020-01-26,Muzaffarnagar,1.0,Severe,405,PM2.5
2020-01-27,Muzaffarnagar,1.0,Very Poor,347,PM2.5
2020-01-28,Muzaffarnagar,1.0,Poor,288,PM2.5
2020-01-29,Muzaffarnagar,1.0,Satisfactory,77,PM10
2020-01-30,Muzaffarnagar,1.0,Moderate,122,PM10
2020-01-31,Muzaffarnagar,1.0,Moderate,125,PM10
2020-02-01,Muzaffarnagar,1.0,Moderate,188,PM2.5
2020-02-02,Muzaffarnagar,1.0,Poor,206,PM2.5
2020-02-03,Muzaffarnagar,1.0,Poor,216,PM2.5
2020-02-04,Muzaffarnagar,1.0,Poor,269,PM2.5
2020-02-05,Muzaffarnagar,1.0,Poor,235,PM2.5
2020-02-06,Muzaffarnagar,1.0,Moderate,151,PM2.5
2020-02-07,Muzaffarnagar,1.0,Poor,204,PM2.5
2020-02-08,Muzaffarnagar,1.0,Moderate,196,PM2.5
2020-02-09,Muzaffarnagar,1.0,Poor,253,PM2.5
2020-02-13,Muzaffarnagar,1.0,Moderate,129,PM10
2020-02-14,Muzaffarnagar,1.0,Moderate,134,PM10
2020-02-15,Muzaffarnagar,1.0,Moderate,127,PM10
2020-02-16,Muzaffarnagar,1.0,Poor,234,PM2.5
2020-02-17,Muzaffarnagar,1.0,Poor,282,PM2.5
2020-02-18,Muzaffarnagar,1.0,Moderate,174,PM2.5
2020-02-19,Muzaffarnagar,1.0,Poor,282,PM2.5
2020-02-20,Muzaffarnagar,1.0,Poor,232,PM2.5
2020-02-21,Muzaffarnagar,1.0,Moderate,136,PM2.5
2020-02-22,Muzaffarnagar,1.0,Satisfactory,75,PM2.5
2020-02-23,Muzaffarnagar,1.0,Poor,211,PM2.5
2020-02-25,Muzaffarnagar,1.0,Moderate,170,PM2.5
2020-02-26,Muzaffarnagar,1.0,Poor,248,PM2.5
2020-02-27,Muzaffarnagar,1.0,Poor,248,PM2.5
2020-02-28,Muzaffarnagar,1.0,Poor,240,PM2.5
2020-02-29,Muzaffarnagar,1.0,Moderate,194,PM2.5
2020-03-01,Muzaffarnagar,1.0,Satisfactory,54,CO
2020-03-02,Muzaffarnagar,1.0,Moderate,138,PM10
2020-03-03,Muzaffarnagar,1.0,Poor,234,PM2.5
2020-03-04,Muzaffarnagar,1.0,Moderate,195,PM2.5
2020-03-05,Muzaffarnagar,1.0,Satisfactory,86,PM10
2020-03-06,Muzaffarnagar,1.0,Satisfactory,65,PM10
2020-03-08,Muzaffarnagar,1.0,Moderate,113,PM2.5
2020-03-09,Muzaffarnagar,1.0,Satisfactory,92,PM10
2020-03-10,Muzaffarnagar,1.0,Moderate,157,PM2.5
2020-03-11,Muzaffarnagar,1.0,Moderate,140,PM2.5
2020-03-12,Muzaffarnagar,1.0,Satisfactory,72,PM10
2020-03-13,Muzaffarnagar,1.0,Moderate,124,PM2.5
2020-03-14,Muzaffarnagar,1.0,Satisfactory,71,PM10
2020-03-15,Muzaffarnagar,1.0,Satisfactory,85,PM2.5
2020-03-16,Muzaffarnagar,1.0,Moderate,112,PM10
2020-03-17,Muzaffarnagar,1.0,Moderate,123,PM10
2020-03-18,Muzaffarnagar,1.0,Moderate,125,PM2.5
2020-03-19,Muzaffarnagar,1.0,Moderate,163,PM2.5
2020-03-20,Muzaffarnagar,1.0,Poor,222,PM2.5
2020-03-21,Muzaffarnagar,1.0,Poor,239,PM2.5
2020-03-22,Muzaffarnagar,1.0,Satisfactory,92,PM10
2020-03-23,Muzaffarnagar,1.0,Moderate,111,PM2.5
2020-03-24,Muzaffarnagar,1.0,Moderate,126,PM10
2020-03-25,Muzaffarnagar,1.0,Satisfactory,90,PM10
2020-03-26,Muzaffarnagar,1.0,Satisfactory,80,PM10
2020-03-27,Muzaffarnagar,1.0,Satisfactory,73,PM10
2020-03-28,Muzaffarnagar,1.0,Satisfactory,54,CO
2020-03-29,Muzaffarnagar,1.0,Good,48,PM10
2020-03-30,Muzaffarnagar,1.0,Satisfactory,61,PM10
2020-04-03,Muzaffarnagar,1.0,Satisfactory,72,PM10
2020-04-04,Muzaffarnagar,1.0,Satisfactory,75,PM10
2020-04-05,Muzaffarnagar,1.0,Moderate,105,PM10
2020-04-06,Muzaffarnagar,1.0,Moderate,131,PM2.5
2020-04-07,Muzaffarnagar,1.0,Satisfactory,93,PM10
2020-04-08,Muzaffarnagar,1.0,Satisfactory,96,PM10
2020-04-09,Muzaffarnagar,1.0,Moderate,103,PM10
2020-04-10,Muzaffarnagar,1.0,Moderate,136,PM2.5
2020-04-11,Muzaffarnagar,1.0,Moderate,120,PM10
2020-04-12,Muzaffarnagar,1.0,Moderate,110,PM10